Location: Arborea
(39.7744°N, 8.5819°E)
Time: 12:02:05
(UTC+00:00)

Cosmos 1953 - Pass Details

Date: 06 June 2022
Orbit: 533 x 555 km, 82.5° (Epoch: 30 June)

Event Time Altitude Azimuth Distance (km) Brightness Sun altitude
Rises 22:33:50 0° 353° (N) 2,703 7.2 -26.4°
Reaches altitude 10° 22:36:00 10° 354° (N) 1,803 5.9 -26.5°
Enters shadow 22:38:51 46° 1° (N) 732 3.2 -26.6°
